Regional Weather Roundup
Issued by NWS Little Rock, AR

Home | Current Version | Previous Version | Text Only | Print | Product List | Glossary On
Versions: 1 2 3 4 5 6 7 8 9 10 11 12 13 14 15 16 17 18 19 20 21 22 23 24 25 26 27 28 29 30 31 32 33 34 35 36 37 38 39 40 41 42 43 44 45 46 47 48 49 50
000
ASUS44 KLZK 312005
RWRLZK

WEATHER ROUNDUP FOR ARKANSAS
NATIONAL WEATHER SERVICE LITTLE ROCK AR
300 PM CDT TUE MAY 31 2016

NOTE: "FAIR" INDICATES FEW OR NO CLOUDS BELOW 12,000 FEET WITH NO
SIGNIFICANT WEATHER AND/OR OBSTRUCTIONS TO VISIBILITY.

ARZ001-003-010-029-312100-
NORTHWEST ARKANSAS

CITY           SKY/WX    TMP DP  RH WIND       PRES   REMARKS
FAYETTEVILLE   FAIR      75  69  81 S7        29.91
FORT SMITH     FAIR      77  66  68 E5        29.89
HARRISON       FAIR      77  66  68 SE9       29.93
BENTONVILLE    FAIR      79  64  61 S7        29.93
ROGERS           N/A     78  67  68 VRB5      29.93
SILOAM SPGS    FAIR      77  63  61 S8        29.92
HIGHFILL       FAIR      77  68  73 S9        29.92
SPRINGDALE     PTSUNNY   77  66  69 SE6       29.94
$$

ARZ004-005-016-312100-
NORTH CENTRAL ARKANSAS

CITY           SKY/WX    TMP DP  RH WIND       PRES   REMARKS
BATESVILLE     FAIR      82  66  57 E3        29.92  HX  85
FLIPPIN        FAIR     N/A N/A N/A SE7       29.90
MTN HOME       PTSUNNY   79  67  66 E3        29.92
$$

ARZ040-041-312100-
WEST CENTRAL ARKANSAS

CITY           SKY/WX    TMP DP  RH WIND       PRES   REMARKS
MENA           FAIR      81  72  74 N7        29.89
MOUNT IDA      FAIR      82  68  62 VRB5      29.87  HX  85
$$

ARZ009-017-025-026-028-312100-
NORTHEAST ARKANSAS

CITY           SKY/WX    TMP DP  RH WIND       PRES   REMARKS
CORNING        LGT RAIN  82  68  61 SE5       29.92  HX  85
JONESBORO      FAIR      82  65  56 S8        29.91
NEWPORT        FAIR      83  70  64 VRB3      29.92  HX  87
WALNUT RIDGE   FAIR      81  66  61 CALM      29.91
BLYTHEVILLE    FAIR      81  68  64 VRB3      29.93
NW BLYTHEVILLE MOSUNNY   82  66  57 CALM      29.93  HX  85
$$

ARZ022-023-033-042-044-312100-
CENTRAL ARKANSAS

CITY           SKY/WX    TMP DP  RH WIND       PRES   REMARKS
LITTLE ROCK    FAIR      82  68  62 E3        29.91  HX  85
N LITTLE ROCK    N/A     82  70  68 E5        29.89F HX  86
JACKSONVILLE   PTSUNNY   83  71  68 E5        29.90F HX  87
SEARCY         PTSUNNY   82  72  69 SE6       29.93  HX  87
HOT SPRINGS    FAIR      83  68  60 E8        29.90  HX  86
RUSSELLVILLE   FAIR      80  68  66 VRB6      29.91
CLINTON        FAIR      81  70  69 CALM      29.92
$$

ARZ036-312100-
EAST ARKANSAS

CITY           SKY/WX    TMP DP  RH WIND       PRES   REMARKS
WEST MEMPHIS   CLOUDY    82  66  58 VRB5      29.91
$$

ARZ050-053-066-070-073-312100-
SOUTHWEST ARKANSAS

CITY           SKY/WX    TMP DP  RH WIND       PRES   REMARKS
ARKADELPHIA    MOCLDY    83  73  71 VRB3      29.88  HX  89
CAMDEN         FAIR      90  68  48 S5        29.88  HX  93
TEXARKANA      FAIR      83  72  69 VRB5      29.85  HX  88
EL DORADO      FAIR      84  68  58 SE6       29.89  HX  87
DE QUEEN       PTSUNNY   86  70  58 S6        29.82  HX  90
$$

ARZ056-057-069-312100-
SOUTHEAST ARKANSAS

CITY           SKY/WX    TMP DP  RH WIND       PRES   REMARKS
PINE BLUFF     FAIR      84  69  60 SE6       29.90  HX  88
STUTTGART      CLOUDY    81  68  65 CALM      29.92
MONTICELLO     FAIR      87  69  54 S5        29.89  HX  91

$$





USA.gov is the U.S. government's official web portal to all federal, state and local government web resources and services.